TimeCDT,TemperatureF,Dew PointF,Humidity,Sea Level PressureIn,VisibilityMPH,Wind Direction,Wind SpeedMPH,Gust SpeedMPH,PrecipitationIn,Events,Conditions,WindDirDegrees,DateUTC
12:55 AM,39.2,33.8,81,30.22,10.0,Calm,Calm,-,N/A,,Clear,0,2012-10-13 05:55:00
1:15 AM,39.2,33.8,81,30.21,10.0,Calm,Calm,-,N/A,,Clear,0,2012-10-13 06:15:00
1:35 AM,37.4,33.8,87,30.19,10.0,Calm,Calm,-,N/A,,Clear,0,2012-10-13 06:35:00
1:55 AM,39.2,33.8,81,30.19,10.0,Calm,Calm,-,N/A,,Clear,0,2012-10-13 06:55:00
2:15 AM,41.0,33.8,76,30.18,10.0,Calm,Calm,-,N/A,,Scattered Clouds,0,2012-10-13 07:15:00
2:35 AM,41.0,33.8,76,30.16,10.0,Calm,Calm,-,N/A,,Light Drizzle,0,2012-10-13 07:35:00
2:55 AM,41.0,33.8,76,30.17,10.0,Calm,Calm,-,N/A,Rain,Light Rain,0,2012-10-13 07:55:00
3:15 AM,41.0,35.6,81,30.15,10.0,South,4.6,-,N/A,Rain,Light Rain,170,2012-10-13 08:15:00
3:35 AM,41.0,35.6,81,30.16,7.0,Calm,Calm,-,N/A,Rain,Rain,0,2012-10-13 08:35:00
3:55 AM,41.0,37.4,87,30.14,5.0,Calm,Calm,-,0.01,Rain,Rain,0,2012-10-13 08:55:00
4:15 AM,41.0,37.4,87,30.14,7.0,Calm,Calm,-,0.01,Rain,Rain,0,2012-10-13 09:15:00
4:35 AM,41.0,37.4,87,30.14,7.0,Calm,Calm,-,0.03,Rain,Rain,0,2012-10-13 09:35:00
4:55 AM,41.0,37.4,87,30.12,4.0,Calm,Calm,-,0.07,Rain,Rain,0,2012-10-13 09:55:00
5:15 AM,41.0,37.4,87,30.10,5.0,SSE,5.8,-,0.02,,Drizzle,150,2012-10-13 10:15:00
5:35 AM,41.0,39.2,93,30.10,4.0,South,4.6,-,0.02,,Drizzle,170,2012-10-13 10:35:00
5:55 AM,41.0,39.2,93,30.09,4.0,Calm,Calm,-,0.06,Rain,Heavy Rain,0,2012-10-13 10:55:00
6:15 AM,41.0,41.0,100,30.07,3.0,SE,5.8,-,0.02,Rain,Rain,140,2012-10-13 11:15:00
6:35 AM,42.8,41.0,93,30.06,4.0,SSE,5.8,-,0.04,Rain,Rain,150,2012-10-13 11:35:00
6:55 AM,42.8,41.0,93,30.04,5.0,SSE,8.1,-,0.04,,Light Drizzle,160,2012-10-13 11:55:00
7:15 AM,42.8,41.0,93,30.03,4.0,South,4.6,-,N/A,,Drizzle,180,2012-10-13 12:15:00
7:35 AM,42.8,41.0,93,30.00,3.0,SSE,8.1,-,N/A,,Light Drizzle,160,2012-10-13 12:35:00
7:55 AM,42.8,41.0,93,30.00,3.0,South,6.9,-,N/A,,Light Drizzle,170,2012-10-13 12:55:00
8:15 AM,42.8,41.0,93,29.98,4.0,SSE,5.8,-,N/A,Thunderstorm,Overcast,160,2012-10-13 13:15:00
8:55 AM,44.6,42.8,93,29.96,2.5,South,4.6,-,N/A,,Drizzle,170,2012-10-13 13:55:00
9:35 AM,44.6,42.8,93,29.94,4.0,SSE,5.8,-,N/A,,Drizzle,160,2012-10-13 14:35:00
9:55 AM,44.6,44.6,100,29.94,5.0,South,4.6,-,N/A,,Drizzle,170,2012-10-13 14:55:00
10:15 AM,46.4,44.6,93,29.93,4.0,SSE,6.9,-,0.02,Rain,Rain,160,2012-10-13 15:15:00
10:35 AM,46.4,44.6,93,29.91,3.0,South,4.6,-,0.04,Rain,Rain,190,2012-10-13 15:35:00
10:55 AM,46.4,44.6,93,29.92,4.0,SW,3.5,-,0.08,Rain,Heavy Rain,230,2012-10-13 15:55:00
11:15 AM,46.4,44.6,93,29.90,3.0,Calm,Calm,-,0.06,Rain,Rain,0,2012-10-13 16:15:00
11:35 AM,46.4,44.6,93,29.89,2.5,Calm,Calm,-,0.12,Rain,Rain,0,2012-10-13 16:35:00
11:55 AM,46.4,46.4,100,29.88,3.0,Calm,Calm,-,0.18,Rain,Rain,0,2012-10-13 16:55:00
12:35 PM,48.2,46.4,93,29.84,5.0,South,3.5,-,0.04,Rain,Light Rain,170,2012-10-13 17:35:00
1:15 PM,48.2,46.4,93,29.81,5.0,Calm,Calm,-,0.04,Rain,Rain,0,2012-10-13 18:15:00
1:35 PM,48.2,46.4,93,29.80,4.0,SSW,3.5,-,0.08,Rain,Light Rain,200,2012-10-13 18:35:00
1:55 PM,50.0,46.4,87,29.80,4.0,SW,3.5,-,0.10,Rain,Rain,220,2012-10-13 18:55:00
2:15 PM,50.0,46.4,87,29.79,7.0,SSW,3.5,-,N/A,,Light Drizzle,210,2012-10-13 19:15:00
2:35 PM,50.0,46.4,87,29.78,2.0,SW,3.5,-,N/A,,Drizzle,230,2012-10-13 19:35:00
2:55 PM,50.0,48.2,94,29.77,3.0,SW,3.5,-,0.02,Rain,Rain,230,2012-10-13 19:55:00
3:15 PM,50.0,46.4,87,29.76,2.5,Calm,Calm,-,0.06,Rain,Rain,0,2012-10-13 20:15:00
3:35 PM,50.0,48.2,94,29.75,2.5,Calm,Calm,-,0.10,Rain,Rain,0,2012-10-13 20:35:00
3:55 PM,50.0,48.2,94,29.75,2.0,Calm,Calm,-,0.16,Rain,Rain,0,2012-10-13 20:55:00
4:15 PM,50.0,48.2,94,29.74,2.5,Calm,Calm,-,0.04,,Heavy Drizzle,0,2012-10-13 21:15:00
4:35 PM,50.0,48.2,94,29.75,2.5,Calm,Calm,-,0.10,Rain,Rain,0,2012-10-13 21:35:00
4:55 PM,50.0,48.2,94,29.74,2.5,Calm,Calm,-,0.16,Rain,Heavy Rain,0,2012-10-13 21:55:00
5:15 PM,50.0,48.2,94,29.74,1.8,Calm,Calm,-,0.02,,Heavy Drizzle,0,2012-10-13 22:15:00
5:35 PM,50.0,48.2,94,29.75,1.0,NNE,3.5,-,0.06,Rain,Rain,20,2012-10-13 22:35:00
5:55 PM,50.0,46.4,87,29.75,1.2,Calm,Calm,-,0.08,Rain,Heavy Rain,0,2012-10-13 22:55:00
6:15 PM,50.0,48.2,94,29.74,1.2,Calm,Calm,-,0.04,Rain,Heavy Rain,0,2012-10-13 23:15:00
6:35 PM,50.0,48.2,94,29.74,1.5,Calm,Calm,-,0.06,,Drizzle,0,2012-10-13 23:35:00
7:15 PM,50.0,48.2,94,29.75,1.5,Calm,Calm,-,N/A,,Overcast,0,2012-10-14 00:15:00
7:35 PM,50.0,48.2,94,29.76,1.8,Calm,Calm,-,N/A,,Overcast,0,2012-10-14 00:35:00
7:55 PM,50.0,48.2,94,29.76,1.2,Calm,Calm,-,0.02,,Drizzle,0,2012-10-14 00:55:00
8:15 PM,50.0,48.2,94,29.76,1.0,Calm,Calm,-,N/A,,Light Drizzle,0,2012-10-14 01:15:00
9:15 PM,50.0,48.2,94,29.76,1.0,NNE,3.5,-,N/A,,Overcast,20,2012-10-14 02:15:00
9:35 PM,50.0,48.2,94,29.76,1.2,NNE,4.6,-,N/A,,Drizzle,30,2012-10-14 02:35:00
9:55 PM,50.0,48.2,94,29.76,2.0,NE,3.5,-,0.02,,Drizzle,40,2012-10-14 02:55:00
10:15 PM,50.0,48.2,94,29.76,2.0,NE,5.8,-,N/A,,Drizzle,40,2012-10-14 03:15:00
10:55 PM,50.0,46.4,87,29.75,4.0,NE,3.5,-,N/A,,Overcast,50,2012-10-14 03:55:00
11:15 PM,50.0,46.4,87,29.76,3.0,NE,3.5,-,N/A,Rain,Light Rain,50,2012-10-14 04:15:00
11:35 PM,50.0,46.4,87,29.77,4.0,East,3.5,-,N/A,,Overcast,80,2012-10-14 04:35:00
11:55 PM,50.0,46.4,87,29.77,5.0,NE,3.5,-,0.02,,Overcast,50,2012-10-14 04:55:00